Tracking 25711 objects as of 22-May-2022
HD Live streaming from Space Station
objects crossing your sky now

BREEZE-M DEB (TANK)

Track BREEZE-M DEB (TANK) now!
10-day predictions


NORAD ID: 44309
Int'l Code: 2019-031C
Perigee: 307.6 km
Apogee: 17,778.5 km
Inclination: 49.4 °
Period: 317.4 minutes
Semi major axis: 15414 km
RCS: Unknown
Launch date: May 30, 2019
Source: Commonwealth of Independent States (former USSR) (CIS)
Launch site: TYURATAM MISSILE AND SPACE COMPLEX (TTMTR)

Note: This is SATELLITE DEBRIS
aabbcc
Your satellite tracking list
Your tracking list is empty




NASA's NSSDC Master Catalog

Two Line Element Set (TLE):
1 44309U 19031C   22141.65046282  .00004587  00000-0  10226-2 0  9994
2 44309  49.4350 190.7638 5667221 225.2198  71.7267  4.53658834 49176
Source of the keplerian elements: AFSPC